Hourly Data Report for October 16, 2013

All times are specified in Local Standard Time (LST). Add 1 hour to adjust for Daylight Saving Time where and when it is observed.

GRISE FIORD CLIMATE
NUNAVUT

76°25'22.040" N
82°54'08.020" W
44.50 m
2402351
71971
NGC

Download Data

Hourly Data (October 2013)
Hourly Data Report for October 16, 2013
Temp Definition
°C
Dew Point Temp Definition
°C
Rel Hum Definition
%
Wind Dir Definition
10's deg

Wind Spd Definition
km/h
Visibility Definition
km
Stn Press Definition
kPa
Hmdx Definition


Wind Chill Definition


Weather Definition


TIME
00:00 -5.8 -6.4 96 30 7   100.93   -9 LegendNANA
01:00 -5.8 -6.4 96 17 2   100.94   -7 LegendNANA
02:00 -6.2 -6.6 97 35 4   100.89   -8 LegendNANA
03:00 -5.9 -6.3 97 29 4   100.85   -8 LegendNANA
04:00 -6.3 -6.6 98 28 4   100.79   -8 LegendNANA
05:00 -6.0 -6.3 98 32 4   100.79   -8 LegendNANA
06:00 -5.8 -6.2 97 32 2   100.79   -7 LegendNANA
07:00 -5.4 -5.9 96 34 6   100.67   -8 LegendNANA
08:00 -5.8 -6.3 96 16 4   100.66   -8 LegendNANA
09:00 -5.2 -6.2 93 34 6   100.63   -8 LegendNANA
10:00 -4.8 -5.9 92 2 4   100.60   -7 LegendNANA
11:00 -4.9 -5.9 93 33 6   100.56   -8 LegendNANA
12:00 -5.0 -5.8 94 35 9   100.55   -9 LegendNANA
13:00 -2.4 -4.6 85 12 7   100.51   -5 LegendNANA
14:00 -2.5 -4.1 89 16 6   100.51   -5 LegendNANA
15:00 -2.1 -3.8 88 14 9   100.46   -6 LegendNANA
16:00 -0.6 -4.3 76 35 7   100.41   -3 LegendNANA
17:00 1.3 -4.3 66 4 19   100.37     LegendNANA
18:00 1.8 -4.1 65 25 19   100.36     LegendNANA
19:00 1.6 -3.7 68 25 9   100.36     LegendNANA
20:00 1.7 -3.6 68 1 19   100.34     LegendNANA
21:00 1.7 -3.7 67 28 9   100.33     LegendNANA
22:00 2.2 -4.2 63 6 9   100.33     LegendNANA
23:00 1.3 -4.0 68 2 9   100.35     LegendNANA

Notes on Data Quality.

Legend

  • E = Estimated
  • M = Missing
  • NA = Not Available
  • ‡ = Partner data that is not subject to review by the National Climate Archives
Date modified: